Location: Bishop�s Knoyle
(51.0728°N, 2.1714°W)
Time: 16:54:49
(UTC+00:00)

Meteor 1-24 Rocket - Pass Details

Date: 18 September 2020
Orbit: 790 x 927 km, 81.2° (Epoch: 31 October)

Event Time Altitude Azimuth Distance (km) Brightness Sun altitude
Rises 20:47:11 0° 346° (NNW) 3,342 7.5 -23.2°
Reaches altitude 10° 20:49:32 10° 347° (NNW) 2,421 6.7 -23.5°
Maximum altitude 20:55:02 86° 260° (W) 847 3.6 -24.2°
Enters shadow 20:56:30 52° 175° (S) 1,047 3.9 -24.4°
